Terminal Aerodrome Forecast
Issued by NWS Northern Indiana

Home | Current Version | Previous Version | Graphics & Text | Print | Product List | Glossary On
Versions: 1 2 3 4 5 6 7 8 9 10 11 12 13 14 15 16 17 18 19 20
000
FTUS43 KIWX 271100
TAFFWA
TAF
KFWA 271120Z 2712/2812 23005KT 6SM BR SCT008 BKN015
     FM271700 26010KT 6SM -SHRA VCTS SCT025CB BKN035
     FM272100 29012G20KT P6SM VCSH BKN035
     FM280100 29010KT 6SM BR SCT008 BKN035
      TEMPO 2803/2807 3SM BR BKN008
     FM280700 31010KT 5SM BR BKN008=

USA.gov is the U.S. government's official web portal to all federal, state and local government web resources and services.